Location: Newark
(20.1200°S, 168.9600°E)
Time: 16:36:08
(UTC+00:00)

Hubble Space Telescope - Pass Details

Date: 22 November 2019
Orbit: 536 x 540 km, 28.5° (Epoch: 05 December)

Event Time Altitude Azimuth Distance (km) Brightness Sun altitude
Exits shadow 16:38:51 34° 277° (W) 899 1.4 -17.1°
Maximum altitude 16:40:33 72° 200° (SSW) 569 0.8 -16.7°
Drops below altitude 10° 16:44:43 10° 115° (ESE) 1,799 4.8 -15.9°
Sets 16:46:59 0° 113° (ESE) 2,691 6.2 -15.4°
